Location: Ladrillo (historical)
(32.8195°N, 117.2231°W)
Time: 11:51:45
(UTC+00:00)

Cosmos 1869 - Pass Details

Date: 26 May 2022
Orbit: 515 x 558 km, 82.5° (Epoch: 30 June)

Event Time Altitude Azimuth Distance (km) Brightness Sun altitude
Rises 12:15:29 0° 347° (NNW) 2,677 7.1 -6.1°
Reaches altitude 10° 12:17:42 10° 342° (NNW) 1,776 6.1 -5.7°
Maximum altitude 12:21:28 50° 267° (W) 672 3.4 -5.0°
Drops below altitude 10° 12:25:10 10° 191° (S) 1,743 5.5 -4.3°
Sets 12:27:19 0° 186° (S) 2,622 6.4 -3.9°
